Location: Cronhütte
(48.9135°N, 9.6869°E)
Time: 15:56:07
(UTC+00:00)

FORMOSAT 3E - Pass Details

Date: 03 May 2025
Orbit: 742 x 834 km, 72.0° (Epoch: 13 May)

Event Time Altitude Azimuth Distance (km) Brightness Sun altitude
Rises 22:03:55 0° 337° (NNW) 3,196 12.7 -23.1°
Reaches altitude 10° 22:06:26 10° 345° (NNW) 2,274 11.6 -23.2°
Maximum altitude 22:11:15 39° 54° (NE) 1,131 8.9 -23.4°
Enters shadow 22:12:52 31° 93° (E) 1,313 9.0 -23.5°
